Regional Weather Roundup
Issued by NWS

Home | Current Version | Previous Version | Text Only | Print | Product List | Glossary Off
Versions: 1 2 3 4 5 6 7 8 9 10 11 12 13 14 15 16 17 18 19 20 21 22 23 24 25 26 27 28 29 30 31 32 33 34 35 36 37 38 39 40 41 42 43 44 45 46 47 48 49 50

000
ASUS43 KBIS 031002
RWRND

NORTH DAKOTA REGIONAL WEATHER ROUNDUP
NATIONAL WEATHER SERVICE BISMARCK ND
400 AM CST SAT DEC 03 2016

NOTE: "FAIR" INDICATES FEW OR NO CLOUDS BELOW 12,000 FEET WITH NO
SIGNIFICANT WEATHER AND/OR OBSTRUCTIONS TO VISIBILITY.


NDZ001>003-009>011-017-031100-
NORTHWEST NORTH DAKOTA

CITY           SKY/WX    TMP DP  RH WIND       PRES   REMARKS
WILLISTON      CLEAR     21  18  88 S3        29.91
MINOT          CLEAR     21  19  92 SE6       29.98  WCI  13
MINOT AFB      CLEAR     17  15  92 S14       29.97F WCI   3
$$

NDZ018>021-031>035-040>046-031100-
SOUTHWEST NORTH DAKOTA

CITY           SKY/WX    TMP DP  RH WIND       PRES   REMARKS
BISMARCK       CLEAR     18  17  96 SE10      30.09  WCI   6
DICKINSON      CLEAR     17  14  88 S12       29.94F WCI   4
GARRISON         N/A     24  22  91 SE5       30.02F WCI  18
$$

NDZ004>008-012>016-024-026-027-054-031100-
NORTHEAST NORTH DAKOTA

CITY           SKY/WX    TMP DP  RH WIND       PRES   REMARKS
GRND FRKS AFB  CLOUDY    26  19  75 SW13      30.21F WCI  15
DEVILS LAKE    CLOUDY    25  22  88 S16       30.12F WCI  12
$$

NDZ022-023-025-028>030-036>039-047>053-031100-
SOUTHEAST NORTH DAKOTA

CITY           SKY/WX    TMP DP  RH WIND       PRES   REMARKS
FARGO          NOT AVBL
JAMESTOWN      CLOUDY    26  22  84 S9        30.15F WCI  17
$$




USA.gov is the U.S. government's official web portal to all federal, state and local government web resources and services.